Temp
-14 -14 -14 -15 -15 -15 -15 -15 -15 -15 -15 -15 -15 -15 -15 -15 -15 -15 -15 -15 -15 -15 -15 -14 -14 -14 -14 -14 -14 -14 -13 -12
-14 -15 -15 -16 -16 -16 -16 -16 -16 -16 -16 -16 -15 -15 -15 -15 -15 -16 -16 -16 -16 -15 -15 -15 -15 -15 -14 -14 -14 -14 -14 -13
-14 -15 -15 -16 -16 -17 -17 -17 -17 -16 -16 -16 -15 -15 -15 -15 -16 -16 -16 -16 -16 -16 -16 -16 -15 -15 -15 -15 -15 -15 -14 -14
-15 -15 -15 -15 -16 -17 -17 -17 -17 -17 -16 -16 -16 -15 -15 -15 -16 -16 -16 -16 -16 -16 -16 -16 -16 -16 -16 -15 -15 -15 -15 -14
-15 -15 -16 -16 -17 -17 -17 -17 -17 -17 -17 -17 -17 -17 -17 -17 -17 -17 -17 -17 -16 -17 -17 -16 -17 -16 -16 -16 -16 -16 -15 -14
-15 -15 -16 -16 -16 -17 -17 -17 -17 -17 -17 -17 -17 -17 -17 -17 -17 -17 -17 -17 -17 -17 -17 -16 -17 -17 -17 -17 -17 -16 -16 -15
-16 -16 -16 -16 -17 -17 -17 -17 -17 -17 -17 -17 -17 -18 -18 -17 -17 -17 -17 -17 -17 -17 -17 -17 -18 -18 -17 -17 -17 -17 -17 -16
-16 -16 -17 -17 -17 -17 -17 -17 -17 -17 -17 -17 -17 -18 -18 -17 -17 -17 -17 -17 -17 -17 -17 -17 -17 -18 -17 -17 -17 -17 -17 -17
-16 -17 -17 -18 -18 -17 -17 -18 -18 -18 -18 -18 -18 -18 -19 -18 -18 -17 -17 -17 -17 -17 -17 -17 -17 -18 -18 -17 -18 -17 -17 -17
-17 -17 -17 -17 -18 -18 -18 -18 -18 -19 -19 -18 -18 -18 -18 -18 -18 -17 -17 -17 -17 -17 -17 -17 -17 -17 -17 -17 -17 -17 -17 -17
-16 -17 -18 -18 -18 -18 -18 -18 -18 -19 -19 -19 -18 -18 -18 -18 -18 -17 -17 -17 -17 -17 -17 -17 -17 -17 -17 -17 -17 -17 -18 -18
-17 -18 -18 -18 -18 -18 -18 -18 -18 -18 -19 -19 -19 -18 -18 -18 -18 -17 -18 -18 -18 -18 -18 -18 -18 -18 -18 -17 -17 -18 -18 -18
-18 -18 -18 -18 -18 -18 -18 -18 -18 -18 -18 -18 -18 -18 -18 -18 -18 -19 -18 -19 -19 -19 -19 -19 -19 -19 -19 -19 -19 -19 -18 -18
-18 -18 -19 -18 -18 -18 -18 -18 -18 -17 -17 -17 -18 -17 -17 -17 -18 -18 -18 -19 -19 -19 -20 -19 -19 -19 -20 -19 -19 -19 -18 -18
-19 -19 -19 -19 -19 -19 -18 -18 -18 -18 -18 -18 -18 -18 -18 -18 -18 -18 -19 -19 -19 -19 -20 -20 -20 -20 -20 -20 -20 -19 -19 -19
-19 -18 -18 -19 -19 -19 -18 -18 -18 -18 -18 -18 -18 -18 -18 -18 -18 -18 -19 -19 -20 -20 -20 -20 -21 -20 -21 -21 -20 -21 -20 -20
-18 -18 -18 -18 -19 -18 -18 -18 -17 -17 -17 -17 -18 -18 -18 -19 -19 -19 -19 -19 -19 -19 -20 -20 -21 -21 -21 -21 -21 -21 -21 -21
-18 -18 -18 -18 -18 -18 -18 -18 -18 -17 -17 -18 -18 -18 -19 -19 -19 -20 -19 -20 -20 -20 -21 -21 -21 -21 -21 -21 -21 -21 -21 -21
-18 -18 -18 -18 -18 -18 -18 -18 -18 -18 -18 -18 -18 -18 -19 -19 -19 -19 -19 -20 -20 -21 -21 -21 -22 -21 -22 -22 -22 -21 -21 -21
-18 -18 -18 -18 -18 -18 -18 -18 -18 -18 -18 -18 -19 -19 -19 -19 -19 -20 -21 -22 -23 -24 -23 -23 -23 -23 -22 -22 -22 -22 -22 -22
Height
5807 5804 5802 5799 5797 5795 5793 5791 5790 5789 5788 5787 5786 5786 5786 5786 5786 5786 5787 5788 5788 5788 5788 5788 5788 5790 5791 5792 5794 5794 5796 5800
5800 5797 5795 5792 5789 5787 5785 5783 5782 5781 5779 5778 5778 5777 5777 5777 5777 5778 5779 5779 5780 5780 5781 5781 5780 5781 5782 5783 5786 5788 5788 5794
5792 5790 5787 5784 5783 5779 5775 5773 5771 5770 5769 5767 5767 5767 5767 5768 5768 5769 5770 5771 5772 5772 5773 5773 5774 5774 5774 5775 5777 5779 5780 5788
5784 5781 5778 5773 5770 5769 5767 5764 5761 5759 5757 5755 5754 5754 5754 5756 5756 5759 5760 5762 5762 5763 5764 5765 5766 5766 5767 5767 5768 5770 5772 5779
5777 5773 5769 5764 5761 5757 5755 5753 5751 5750 5746 5745 5743 5743 5744 5744 5746 5747 5750 5752 5753 5754 5754 5756 5757 5758 5758 5759 5760 5761 5763 5770
5772 5768 5763 5758 5754 5751 5748 5744 5741 5739 5739 5735 5735 5735 5736 5735 5736 5737 5739 5740 5742 5744 5744 5746 5746 5747 5748 5749 5750 5752 5755 5759
5764 5760 5757 5753 5748 5745 5741 5738 5735 5732 5730 5729 5727 5725 5728 5728 5727 5728 5729 5732 5732 5732 5733 5735 5735 5737 5738 5740 5741 5742 5744 5746
5759 5753 5750 5747 5742 5738 5735 5731 5727 5725 5723 5723 5721 5720 5720 5721 5720 5720 5721 5721 5722 5724 5724 5724 5726 5726 5727 5728 5729 5731 5733 5735
5751 5746 5742 5738 5734 5730 5727 5722 5719 5716 5715 5714 5712 5713 5712 5712 5712 5713 5713 5714 5713 5713 5715 5715 5714 5715 5716 5717 5718 5719 5722 5724
5746 5739 5734 5730 5726 5722 5719 5715 5712 5710 5707 5705 5704 5704 5704 5703 5704 5704 5703 5703 5703 5703 5703 5704 5703 5704 5705 5706 5707 5708 5710 5712
5737 5733 5728 5724 5720 5716 5713 5709 5705 5702 5700 5697 5696 5695 5695 5694 5694 5693 5693 5692 5692 5691 5691 5691 5691 5691 5691 5692 5693 5695 5697 5698
5730 5725 5723 5719 5714 5710 5706 5703 5700 5696 5693 5690 5687 5685 5685 5684 5683 5683 5682 5680 5680 5679 5678 5677 5677 5677 5675 5676 5676 5680 5681 5684
5725 5719 5715 5711 5707 5703 5699 5695 5692 5689 5687 5684 5682 5679 5677 5675 5674 5674 5671 5670 5668 5668 5665 5665 5664 5663 5661 5661 5663 5665 5667 5670
5720 5715 5710 5705 5700 5695 5691 5688 5685 5682 5679 5676 5673 5670 5669 5667 5665 5663 5661 5658 5656 5655 5653 5651 5650 5649 5647 5648 5649 5651 5652 5656
5717 5712 5707 5701 5696 5691 5686 5682 5679 5675 5672 5669 5665 5662 5660 5656 5652 5650 5648 5645 5642 5640 5637 5635 5634 5635 5633 5632 5633 5634 5640 5642
5713 5708 5702 5696 5691 5686 5681 5676 5673 5669 5665 5661 5657 5652 5647 5642 5638 5636 5632 5628 5626 5622 5620 5617 5615 5616 5617 5617 5617 5620 5623 5626
5708 5702 5696 5691 5685 5679 5674 5668 5664 5660 5656 5651 5646 5641 5635 5630 5624 5619 5613 5608 5605 5603 5599 5596 5595 5595 5597 5600 5601 5602 5607 5611
5703 5697 5691 5686 5679 5672 5665 5660 5655 5650 5645 5639 5633 5625 5619 5612 5606 5600 5594 5590 5583 5579 5576 5573 5572 5571 5574 5578 5582 5585 5591 5596
5698 5691 5686 5680 5673 5666 5658 5652 5646 5640 5633 5626 5618 5610 5603 5595 5587 5579 5572 5564 5556 5550 5545 5543 5545 5546 5549 5554 5560 5567 5574 5580
5693 5686 5680 5674 5667 5658 5651 5644 5637 5629 5621 5611 5602 5594 5587 5578 5567 5557 5547 5537 5528 5520 5510 5506 5507 5514 5520 5528 5536 5546 5554 5562
Wind_Speed
37 39 39 39 37 37 37 39 39 37 36 38 39 40 42 43 44 43 41 40 40 39 38 37 36 34 31 29 29 29 30 31
38 39 38 37 38 39 41 41 43 43 43 42 41 40 40 41 43 43 42 41 40 40 39 37 37 36 34 32 32 30 31 31
41 42 43 43 41 41 41 42 42 42 42 45 46 45 43 42 42 42 42 42 42 42 40 38 37 36 37 36 33 33 34 31
39 38 40 44 45 43 41 41 44 45 46 47 47 46 45 43 43 43 43 43 42 42 42 40 40 40 39 40 39 37 35 31
36 39 42 43 43 43 41 42 39 39 44 41 40 38 40 44 41 43 43 44 44 43 43 43 43 42 42 42 43 42 40 36
37 37 39 38 35 31 34 36 34 35 35 40 37 34 34 40 38 40 41 42 43 44 45 45 46 46 45 45 46 45 44 43
40 40 39 38 33 35 39 34 30 32 34 34 38 31 23 30 34 35 35 37 41 43 45 45 46 46 45 45 46 46 46 47
38 38 38 36 37 39 38 37 33 33 36 35 33 30 27 33 33 33 34 36 37 39 41 42 43 44 45 46 46 46 46 47
38 40 41 38 39 40 37 34 33 35 34 36 34 29 29 31 31 33 36 40 42 42 42 43 43 42 42 42 44 44 46 46
40 43 38 35 32 30 29 29 30 31 34 35 37 32 32 33 33 37 40 41 43 44 44 46 48 48 48 48 48 48 49 47
44 32 29 29 28 28 29 30 30 30 30 30 33 36 37 40 42 41 41 43 44 46 47 50 50 53 57 58 58 57 56 55
34 31 29 27 30 31 32 32 32 31 31 30 30 32 35 39 43 44 44 46 47 48 51 52 55 55 60 59 56 52 54 57
31 32 33 34 33 32 32 32 31 31 30 28 29 31 33 35 35 35 37 36 39 43 45 46 48 46 49 51 51 49 50 49
30 33 33 34 35 34 33 32 31 32 31 30 32 35 35 37 38 42 42 46 45 49 48 52 52 50 50 50 48 46 48 45
30 31 33 33 34 35 34 33 33 32 33 35 37 39 39 42 45 48 51 53 55 58 60 61 59 56 57 56 56 55 50 48
30 32 33 33 33 34 33 32 31 32 33 36 40 44 47 50 52 53 56 58 59 61 62 62 64 63 59 60 61 59 56 55
33 34 36 36 37 35 36 33 33 34 37 39 42 44 48 50 53 53 54 57 59 60 63 65 65 66 64 62 63 64 61 60
34 34 35 35 36 39 34 31 33 37 40 43 47 50 47 48 52 56 60 63 66 68 69 70 69 69 67 64 64 64 63 60
33 35 36 36 39 37 36 38 41 42 45 48 53 49 49 54 59 65 67 70 73 76 79 80 75 74 70 66 64 64 61 59
33 34 35 35 38 39 41 42 43 46 48 54 51 50 54 61 62 62 64 63 65 68 76 84 82 75 75 70 67 64 63 61
Wind_Direction
292 292 291 290 287 285 283 281 280 276 269 267 267 269 270 270 271 272 271 271 273 274 277 278 278 276 274 272 268 267 262 261
294 294 293 290 286 282 280 274 275 276 279 279 276 273 271 269 269 268 268 269 270 273 273 274 276 277 276 272 268 263 263 260
296 297 295 291 285 281 282 282 280 279 278 278 277 276 275 271 266 265 266 266 268 269 270 271 272 272 274 273 270 267 260 259
301 302 301 300 300 295 291 288 284 279 277 275 271 269 267 265 264 263 262 262 263 263 265 267 266 267 268 271 271 267 266 260
308 308 308 307 306 305 300 294 283 278 275 274 276 276 277 266 261 261 261 261 260 260 261 262 264 265 266 266 267 268 264 258
313 310 308 308 309 307 305 301 291 282 275 283 293 273 272 269 264 259 259 258 259 262 262 262 262 263 263 264 265 265 263 259
313 310 311 308 298 297 305 307 301 282 282 292 300 299 296 272 265 264 258 257 259 259 259 259 263 265 265 266 266 266 266 264
312 310 306 301 300 299 301 300 294 290 287 287 292 286 280 270 271 267 265 263 263 264 265 266 263 263 263 263 262 263 264 265
314 313 308 304 302 301 302 299 294 288 281 282 281 276 274 271 266 266 266 265 266 269 267 264 265 263 263 263 265 265 264 263
312 309 305 306 309 311 312 308 305 295 285 282 277 275 272 270 272 273 271 269 268 269 265 265 259 260 261 262 264 263 264 263
314 310 312 313 314 312 313 312 311 307 303 297 283 278 275 272 271 272 271 270 269 269 267 265 264 264 265 266 264 262 260 258
312 314 314 315 316 314 311 309 307 304 301 296 293 288 279 275 274 274 274 274 272 272 270 270 269 270 268 267 266 265 261 257
318 322 324 322 317 312 309 307 306 303 300 296 295 291 289 284 278 273 275 275 276 274 275 271 272 270 267 268 270 265 261 255
325 325 327 326 323 320 316 312 311 307 303 304 303 299 295 290 285 283 281 279 272 276 277 275 273 269 266 266 263 261 259 258
327 326 326 324 324 322 320 315 311 307 302 301 300 299 296 292 289 285 281 278 279 278 276 274 273 268 263 261 261 262 259 256
322 322 325 327 327 324 317 311 307 307 307 304 301 299 296 292 289 285 284 282 280 278 275 271 268 266 263 259 257 254 254 256
324 325 327 323 322 321 320 313 308 307 306 304 303 300 295 290 287 287 286 285 281 276 272 269 267 264 260 256 252 252 246 249
327 328 325 325 327 327 324 324 318 314 312 310 308 303 297 295 292 288 287 285 281 276 271 267 264 262 259 253 250 248 248 249
326 325 323 328 330 331 326 324 321 317 314 312 310 304 301 299 296 293 291 287 283 278 271 264 258 256 254 252 246 244 244 245
326 328 328 330 333 335 331 324 321 319 318 316 312 307 303 303 300 297 296 295 293 293 279 266 262 253 248 244 242 239 238 241